• In Hungary
  • List of Countries
  • For 7 days
  • Water Temperature
  • Satellite Maps
  • Weather Map
  • News
  • Weather Widgets
  • user-avatar
    Login

    Hourly Weather San Pedro de Atacama

    Today, 20 June, Wednesday

    Time Temperature Precipitation Wind Pressure Humidity
    00:00 +9°C° 0 mm 1 mps 567 mmHg 15%
    01:00 +9°C° 0 mm 1 mps 566 mmHg 16%
    02:00 +8°C° 0 mm 1 mps 566 mmHg 18%
    03:00 +8°C° 0 mm 1 mps 565 mmHg 21%
    04:00 +8°C° 0 mm 1 mps 565 mmHg 23%
    05:00 +8°C° 0 mm 1 mps 565 mmHg 20%
    06:00 +9°C° 0 mm 1 mps 566 mmHg 18%
    07:00 +9°C° 0 mm 1 mps 566 mmHg 15%
    08:00 +12°C° 0 mm 1 mps 568 mmHg 13%
    09:00 +16°C° 0 mm 1 mps 569 mmHg 10%
    10:00 +20°C° 0 mm 1 mps 570 mmHg 8%
    11:00 +19°C° 0 mm 2 mps 570 mmHg 7%
    12:00 +20°C° 0 mm 2 mps 570 mmHg 7%
    13:00 +21°C° 0 mm 2 mps 570 mmHg 7%
    14:00 +21°C° 0 mm 2 mps 570 mmHg 7%
    15:00 +20°C° 0 mm 2 mps 570 mmHg 8%
    16:00 +20°C° 0 mm 2 mps 569 mmHg 8%
    17:00 +17°C° 0 mm 2 mps 569 mmHg 11%
    18:00 +15°C° 0 mm 1 mps 568 mmHg 13%
    19:00 +12°C° 0 mm 1 mps 567 mmHg 15%
    20:00 +11°C° 0 mm 1 mps 567 mmHg 16%
    21:00 +11°C° 0 mm 1 mps 567 mmHg 16%
    22:00 +10°C° 0 mm 1 mps 567 mmHg 17%
    23:00 +10°C° 0 mm 1 mps 567 mmHg 17%

    Tomorrow, 21 June, Thursday

    Time Temperature Precipitation Wind Pressure Humidity
    00:00 +9°C° 0 mm 1 mps 566 mmHg 17%
    01:00 +9°C° 0 mm 1 mps 566 mmHg 17%
    02:00 +8°C° 0 mm 1 mps 566 mmHg 19%
    03:00 +8°C° 0 mm 1 mps 565 mmHg 21%
    04:00 +7°C° 0 mm 1 mps 565 mmHg 23%
    05:00 +8°C° 0 mm 1 mps 566 mmHg 19%
    06:00 +9°C° 0 mm 1 mps 566 mmHg 16%
    07:00 +9°C° 0 mm 1 mps 566 mmHg 13%
    08:00 +13°C° 0 mm 1 mps 568 mmHg 11%
    09:00 +16°C° 0 mm 1 mps 569 mmHg 9%
    10:00 +20°C° 0 mm 1 mps 571 mmHg 7%
    11:00 +21°C° 0 mm 1 mps 570 mmHg 7%
    12:00 +21°C° 0 mm 2 mps 570 mmHg 6%
    13:00 +23°C° 0 mm 2 mps 570 mmHg 6%
    14:00 +23°C° 0 mm 2 mps 569 mmHg 7%
    15:00 +21°C° 0 mm 2 mps 569 mmHg 7%
    16:00 +21°C° 0 mm 2 mps 569 mmHg 8%
    17:00 +19°C° 0 mm 1 mps 568 mmHg 10%
    18:00 +16°C° 0 mm 1 mps 567 mmHg 12%
    19:00 +13°C° 0 mm 1 mps 566 mmHg 13%
    20:00 +12°C° 0 mm 1 mps 565 mmHg 14%
    21:00 +11°C° 0 mm 0 mps 565 mmHg 15%
    22:00 +10°C° 0 mm 0 mps 565 mmHg 15%
    23:00 +10°C° 0 mm 0 mps 565 mmHg 16%

    Day after tomorrow, 22 June, Friday

    Time Temperature Precipitation Wind Pressure Humidity
    00:00 +10°C° 0 mm 1 mps 565 mmHg 17%
    01:00 +10°C° 0 mm 1 mps 564 mmHg 18%
    02:00 +10°C° 0 mm 1 mps 564 mmHg 21%
    03:00 +9°C° 0 mm 1 mps 564 mmHg 24%
    04:00 +9°C° 0 mm 1 mps 563 mmHg 27%
    05:00 +9°C° 0 mm 1 mps 564 mmHg 23%
    06:00 +10°C° 0 mm 1 mps 564 mmHg 20%
    07:00 +11°C° 0 mm 1 mps 565 mmHg 16%
    08:00 +14°C° 0 mm 1 mps 566 mmHg 13%
    09:00 +18°C° 0 mm 1 mps 568 mmHg 11%
    10:00 +20°C° 0 mm 2 mps 569 mmHg 8%
    11:00 +20°C° 0 mm 2 mps 569 mmHg 8%
    12:00 +21°C° 0 mm 3 mps 569 mmHg 8%
    13:00 +22°C° 0 mm 3 mps 569 mmHg 8%
    14:00 +21°C° 0 mm 3 mps 568 mmHg 9%
    15:00 +20°C° 0 mm 3 mps 568 mmHg 10%
    16:00 +20°C° 0 mm 3 mps 568 mmHg 11%
    17:00 +17°C° 0 mm 2 mps 567 mmHg 14%
    18:00 +15°C° 0 mm 2 mps 567 mmHg 18%
    19:00 +13°C° 0 mm 1 mps 566 mmHg 21%
    20:00 +12°C° 0 mm 1 mps 566 mmHg 23%
    21:00 +11°C° 0 mm 1 mps 566 mmHg 24%
    22:00 +11°C° 0 mm 1 mps 566 mmHg 26%
    23:00 +10°C° 0 mm 1 mps 566 mmHg 26%

    23 June, Saturday

    Time Temperature Precipitation Wind Pressure Humidity
    00:00 +10°C° 0 mm 1 mps 565 mmHg 27%
    01:00 +9°C° 0 mm 1 mps 565 mmHg 27%
    02:00 +9°C° 0 mm 1 mps 564 mmHg 28%
    03:00 +8°C° 0 mm 1 mps 564 mmHg 29%
    04:00 +8°C° 0 mm 1 mps 564 mmHg 29%
    05:00 +8°C° 0 mm 1 mps 564 mmHg 28%
    06:00 +9°C° 0 mm 1 mps 565 mmHg 27%
    07:00 +9°C° 0 mm 1 mps 565 mmHg 27%
    08:00 +12°C° 0 mm 2 mps 566 mmHg 24%
    09:00 +14°C° 0 mm 2 mps 567 mmHg 21%
    10:00 +16°C° 0 mm 2 mps 568 mmHg 18%
    11:00 +16°C° 0 mm 3 mps 568 mmHg 18%
    12:00 +17°C° 0 mm 3 mps 568 mmHg 17%
    13:00 +18°C° 0 mm 3 mps 568 mmHg 17%
    14:00 +17°C° 0 mm 3 mps 567 mmHg 18%
    15:00 +17°C° 0 mm 3 mps 567 mmHg 19%
    16:00 +16°C° 0 mm 3 mps 567 mmHg 21%
    17:00 +13°C° 0 mm 3 mps 567 mmHg 25%
    18:00 +13°C° 0 mm 2 mps 566 mmHg 29%
    19:00 +11°C° 0 mm 1 mps 566 mmHg 32%
    20:00 +10°C° 0 mm 1 mps 566 mmHg 33%
    21:00 +10°C° 0 mm 1 mps 566 mmHg 34%
    22:00 +9°C° 0 mm 2 mps 566 mmHg 34%
    23:00 +8°C° 0 mm 2 mps 565 mmHg 33%

    24 June, Sunday

    Time Temperature Precipitation Wind Pressure Humidity
    00:00 +8°C° 0 mm 2 mps 565 mmHg 32%
    01:00 +8°C° 0 mm 2 mps 565 mmHg 31%
    02:00 +7°C° 0 mm 2 mps 564 mmHg 29%
    03:00 +7°C° 0 mm 2 mps 564 mmHg 28%
    04:00 +7°C° 0 mm 2 mps 564 mmHg 26%
    05:00 +7°C° 0 mm 2 mps 564 mmHg 23%
    06:00 +8°C° 0 mm 3 mps 565 mmHg 20%
    07:00 +8°C° 0 mm 3 mps 565 mmHg 17%
    08:00 +11°C° 0 mm 3 mps 566 mmHg 14%
    09:00 +14°C° 0 mm 2 mps 567 mmHg 10%
    10:00 +17°C° 0 mm 2 mps 568 mmHg 7%
    11:00 +18°C° 0 mm 3 mps 568 mmHg 6%
    12:00 +19°C° 0 mm 4 mps 567 mmHg 6%
    13:00 +20°C° 0 mm 5 mps 567 mmHg 5%
    14:00 +19°C° 0 mm 6 mps 567 mmHg 7%
    15:00 +17°C° 0 mm 6 mps 566 mmHg 8%
    16:00 +16°C° 0 mm 6 mps 566 mmHg 9%
    17:00 +14°C° 0 mm 5 mps 566 mmHg 13%
    18:00 +12°C° 0 mm 3 mps 565 mmHg 16%
    19:00 +10°C° 0 mm 2 mps 565 mmHg 20%
    20:00 +9°C° 0 mm 2 mps 565 mmHg 20%
    21:00 +9°C° 0 mm 2 mps 565 mmHg 20%
    22:00 +9°C° 0 mm 2 mps 565 mmHg 20%
    23:00 +8°C° 0 mm 2 mps 565 mmHg 19%

    25 June, Monday

    Time Temperature Precipitation Wind Pressure Humidity
    00:00 +8°C° 0 mm 2 mps 565 mmHg 19%
    01:00 +7°C° 0 mm 2 mps 564 mmHg 18%
    02:00 +7°C° 0 mm 2 mps 564 mmHg 19%
    03:00 +7°C° 0 mm 2 mps 564 mmHg 19%
    04:00 +6°C° 0 mm 2 mps 564 mmHg 19%
    05:00 +7°C° 0 mm 3 mps 565 mmHg 19%
    06:00 +7°C° 0 mm 3 mps 565 mmHg 18%
    07:00 +8°C° 0 mm 3 mps 566 mmHg 18%
    08:00 +10°C° 0 mm 4 mps 567 mmHg 15%
    09:00 +13°C° 0 mm 5 mps 568 mmHg 12%
    10:00 +15°C° 0 mm 6 mps 569 mmHg 10%
    11:00 +16°C° 0 mm 7 mps 569 mmHg 9%
    12:00 +17°C° 0 mm 8 mps 569 mmHg 9%
    13:00 +17°C° 0 mm 10 mps 568 mmHg 9%
    14:00 +16°C° 0 mm 9 mps 568 mmHg 10%
    15:00 +16°C° 0 mm 9 mps 568 mmHg 12%
    16:00 +15°C° 0 mm 8 mps 567 mmHg 14%
    17:00 +13°C° 0 mm 6 mps 567 mmHg 17%
    18:00 +11°C° 0 mm 4 mps 567 mmHg 21%
    19:00 +9°C° 0 mm 2 mps 566 mmHg 25%
    20:00 +9°C° 0 mm 3 mps 566 mmHg 24%
    21:00 +8°C° 0 mm 3 mps 566 mmHg 23%
    22:00 +8°C° 0 mm 3 mps 566 mmHg 23%
    23:00 +8°C° 0 mm 3 mps 566 mmHg 21%
    Show more